sat.trackr.live / text

‹ back to catalog

STARLINK-11607 [DTC]

NORAD 63140 · 2025-043J

PAYLOAD ACTIVE UNKNOWN

§ Identity

Operator
Country
US
Launch date
2025-03-03
Launch site
AFETR
Launch vehicle
Mass (kg)
RCS (m²)

Purposes: comms

External: N2YO · Heavens-Above · Gunter

§ Orbital elements

Epoch: 2026-09-20T16:33:43.844256Z

Period
91.67 min
Inclination
42.9985°
Eccentricity
0.0001176
Mean motion
15.70914293 rev/d
Perigee alt
355.5 km
Apogee alt
357.1 km
Semi-major
6,734.4 km
B*
1.0446e-3
RAAN
155.0495°
Arg perigee
279.7649°
Mean anomaly
80.3086°
Rev number
9,014

§ Raw data

STARLINK-11607 [DTC]1 63140U 25043J   26263.69009079  .00136232  00000+0  10446-2 0  99902 63140  42.9985 155.0495 0001176 279.7649  80.3086 15.70914293 90141

JSON: /api/v1/satellites/63140 · /tle

For live sub-satellite position, see the globe view (requires WebGL).

§ Visibility from observer

Set your observer location to see the next 7 days of passes ≥ 10°. The values pass through the URL so the page stays shareable.

No JS? Fill the form by hand. The geolocation button needs JavaScript.